Flag for U.S.A. Weather past 2 weeks in Ann Arbor, Michigan, U.S.A.

Now
34 °F

Sunny.


Feels Like: 27 °F
Forecast: 25 / 40 °F
Wind: 9 mph from Southeast

Location: Ann Arbor Municipal Airport

Current Time: Dec 22, 2014 at 11:40:10 AM

Latest Report: Dec 22, 2014 at 10:53 AM


Visibility: 7 mi

Pressure: 30.09 "Hg

Humidity: 79%

Dew point: 28 °F

Location of Ann ArborLocation

Historic Weather in Ann Arbor — Graph

°F

Ann Arbor temperature yesterday

Maximum temperature yesterday: 34 °F (at 2:53 PM)
Minimum temperature yesterday: 19 °F (at 1:53 AM)
Average temperature yesterday: 29 °F

Past Weeks' High & Low Weather Summary

 TemperatureHumidityPressure
High54 °F (Dec 14, 2:53 PM)97% (Dec 16, 10:53 AM)30.71 "Hg (Dec 16, 10:53 AM)
Low19 °F (Dec 21, 1:53 AM)34% (Dec 11, 1:53 PM)29.67 "Hg (Dec 16, 6:53 AM)
Average34 °F78%30.16 "Hg
* Reported Dec 7 9:53 AM — Dec 22 9:53 AM, Ann Arbor, Weather by CustomWeather, © 2014

Note: Actual official high and low records may vary slightly from our data, if they occured in-between our weather recording intervals... More about our weather records

Advertising

Ann Arbor weather history for previous 24 hours

 ConditionsComfort  
Time TempWeatherWind HumidityBarometerVisibility
9:53 AM
Dec 22
31 °FIce fog.8 mph85%30.10 "Hg4 mi
8:53 AM26 °FIce fog.3 mph92%30.11 "Hg3 mi
7:53 AM24 °FIce fog.3 mph88%30.12 "Hg3 mi
6:53 AM24 °FIce fog.3 mph91%30.12 "Hg4 mi
5:53 AM23 °FIce fog.6 mph92%30.12 "Hg4 mi
4:53 AM26 °FIce fog.6 mph88%30.13 "Hg5 mi
3:53 AM26 °FIce fog.5 mph88%30.14 "Hg5 mi
2:53 AM27 °FIce fog.6 mph85%30.16 "Hg5 mi
1:53 AM26 °FIce fog.5 mph88%30.17 "Hg4 mi
12:53 AM27 °FIce fog.6 mph85%30.19 "Hg5 mi
11:53 PM
Dec 21
27 °FIce fog.6 mph89%30.19 "Hg6 mi
10:53 PM28 °FIce fog.7 mph85%30.22 "Hg6 mi
9:53 PM29 °FOvercast.7 mph82%30.22 "Hg7 mi
8:53 PM30 °FOvercast.7 mph79%30.24 "Hg8 mi
7:53 PM30 °FOvercast.7 mph79%30.24 "Hg8 mi
6:53 PM31 °FOvercast.7 mph76%30.24 "Hg9 mi
5:53 PM32 °FOvercast.7 mph73%30.24 "Hg9 mi
4:53 PM33 °FOvercast.6 mph72%30.24 "Hg8 mi
3:53 PM33 °FOvercast.5 mph72%30.24 "Hg9 mi
2:53 PM34 °FOvercast.7 mph70%30.24 "Hg10 mi
1:53 PM33 °FMostly cloudy.5 mph72%30.26 "Hg9 mi
12:53 PM32 °FMostly cloudy.7 mph73%30.28 "Hg8 mi
12:01 PM32 °FMostly cloudy.7 mph75%30.28 "Hg8 mi
11:53 AM31 °FMore clouds than sun.5 mph76%30.32 "Hg8 mi
Weather by CustomWeather, © 2014

See weather overviewHow to use our weather pages